Simultaneous Nadir Overpasses (SNOs) Predictions

Prediction of SNOs between NOAA-20 and LANDSAT-9 Satellite Orbit:

Table of predicted SNOs for the next 14.0 days since TLE Epoch: 4/6/2024
Index Date (NOAA-20) Time (NOAA-20) Lat,Lon (NOAA-20) SZA (NOAA-20 ) Date (LANDSAT-9) Time (LANDSAT-9) Lat,Lon (LANDSAT-9) SZA (LANDSAT-9 ) Distance(km) Time Diff (sec)
1 04/07/2024 22:37:04 70.19,-162.91 62.85 04/07/2024 22:37:45 70.18,-162.98 62.84 2.82 41
2 04/07/2024 23:27:46 -70.09, 4.56 117.27 04/07/2024 23:27:15 -70.07, 4.50 117.28 3.09 31
3 04/10/2024 14:03:33 -70.47, 145.05 117.85 04/10/2024 14:04:44 -70.38, 145.54 117.96 20.74 71
4 04/10/2024 14:54:13 70.14, -47.12 61.80 04/10/2024 14:54:13 70.16, -47.13 61.82 2.91 0
5 04/10/2024 15:44:54 -70.03, 120.35 118.33 04/10/2024 15:43:42 -70.06, 120.35 118.30 2.54 72
6 04/13/2024 06:20:37 -70.21, -98.84 119.10 04/13/2024 06:21:13 -70.23, -98.79 119.08 3.35 36
7 04/13/2024 07:11:21 70.09, 68.65 60.77 04/13/2024 07:10:41 70.06, 68.61 60.75 3.22 40
8 04/15/2024 21:47:04 70.27,-150.55 60.02 04/15/2024 21:48:11 70.27,-150.49 60.01 2.35 67
9 04/15/2024 22:37:46 -70.16, 16.94 120.11 04/15/2024 22:37:41 -70.17, 17.00 120.11 2.52 5
10 04/15/2024 23:28:24 69.73,-175.11 59.43 04/15/2024 23:27:13 69.77,-175.91 59.51 31.36 71
11 04/18/2024 14:04:12 70.18, -34.71 58.99 04/18/2024 14:04:39 70.18, -34.73 58.98 0.90 27
12 04/18/2024 14:54:54 -70.07, 132.78 121.15 04/18/2024 14:54:09 -70.08, 132.76 121.13 1.61 45



Historial Predications of SNOs between NOAA-20 and LANDSAT-9
